This demonstration page uses our WeatherBlox Daily Observations layout. Learn more.

Left ArrowRight Arrow

53.62937, 11.41316

Hourly Observations for June 3, 2019

Temp ( °F °C ) Dew Point ( °F °C ) Humidity (%) Winds ( mph kmh ) Pressure ( in mb ) Visibility ( mi km ) Precip ( " mm )
6:50 am 06:50 Mostly Sunny 68 20 57 14 69 69 W 3 6 29.85 1011 7 11 N/A
7:20 am 07:20 Mostly Sunny 70 21 57 14 64 64 SE 3 6 29.85 1011 30 48 N/A
7:50 am 07:50 Mostly Sunny 72 22 59 15 65 65 SSE 6 9 29.85 1011 30 48 N/A
8:20 am 08:20 Mostly Sunny 73 23 59 15 61 61 S 5 7 29.85 1011 7 11 N/A
8:50 am 08:50 Mostly Sunny 77 25 61 16 57 57 S 5 7 29.85 1011 30 48 N/A
9:20 am 09:20 Mostly Sunny 75 24 57 14 54 54 W 8 13 29.88 1012 7 11 N/A
9:50 am 09:50 Mostly Sunny 75 24 59 15 57 57 WSW 6 9 29.88 1012 30 48 N/A
10:20 am 10:20 Mostly Sunny 77 25 57 14 51 51 SW 6 9 29.88 1012 30 48 N/A
10:50 am 10:50 Partly Cloudy with Light Showers 73 23 57 14 57 57 VRB 6 9 29.88 1012 30 48 N/A
11:20 am 11:20 Partly Cloudy with Showers Nearby 72 22 59 15 65 65 SW 9 15 29.88 1012 30 48 N/A
11:50 am 11:50 Mostly Sunny 75 24 61 16 61 61 SW 16 26 29.91 1013 7 11 N/A
12:20 pm 12:20 Mostly Sunny 77 25 59 15 54 54 WSW 10 17 29.91 1013 30 48 N/A
12:50 pm 12:50 Mostly Sunny 75 24 59 15 57 57 WSW 12 19 29.91 1013 7 11 N/A
1:20 pm 13:20 Mostly Sunny 73 23 57 14 57 57 WSW 10 17 29.88 1012 7 11 N/A
1:50 pm 13:50 Mostly Sunny 75 24 59 15 57 57 S 6 9 29.88 1012 7 11 N/A
2:20 pm 14:20 Mostly Sunny 75 24 59 15 57 57 SSW 8 13 29.88 1012 7 11 N/A
2:50 pm 14:50 Partly Cloudy with Light Showers 70 21 57 14 64 64 SW 15 24 29.88 1012 30 48 N/A
3:20 pm 15:20 Partly Cloudy with Light Rain 66 19 61 16 83 83 SW 14 22 29.91 1013 30 48 N/A
3:50 pm 15:50 Mostly Sunny 68 20 61 16 78 78 SW 9 15 29.88 1012 30 48 N/A
4:20 pm 16:20 Mostly Sunny 68 20 61 16 78 78 SW 14 22 29.88 1012 30 48 N/A
4:50 pm 16:50 Partly Cloudy with Showers Nearby 68 20 63 17 83 83 S 9 15 29.88 1012 30 48 N/A
5:20 pm 17:20 Partly Cloudy with Showers Nearby 66 19 63 17 88 88 S 9 15 29.91 1013 30 48 N/A
5:50 pm 17:50 Partly Cloudy 68 20 61 16 78 78 S 7 11 29.88 1012 30 48 N/A
6:20 pm 18:20 Mostly Sunny 70 21 61 16 73 73 SW 6 9 29.88 1012 7 11 N/A
6:50 pm 18:50 Mostly Sunny 70 21 61 16 73 73 W 5 7 29.88 1012 7 11 N/A
7:20 pm 19:20 Mostly Sunny 70 21 61 16 73 73 W 5 7 29.88 1012 7 11 N/A
7:50 pm 19:50 Mostly Sunny 70 21 61 16 73 73 W 7 11 29.91 1013 7 11 N/A
8:20 pm 20:20 Mostly Sunny 68 20 59 15 73 73 VRB 3 6 29.91 1013 7 11 N/A
8:50 pm 20:50 Mostly Sunny 66 19 59 15 78 78 VRB 1 2 29.91 1013 30 48 N/A

Powered by AerisWeather